Home > Weather > Førde > Past weeks

Flag for Norway Past Weather in Førde, Norway — Yesterday and Last 2 Weeks

Now
63 °F

Passing clouds.


Feels Like: 63 °F
Forecast: 41 / 68 °F
Wind: 8 mph from Northwest

Location: Forde / Bringeland

Current Time: May 26, 2016 at 2:38:51 PM

Latest Report: May 26, 2016 at 1:20 PM


Visibility: N/A

Pressure: 30.09 "Hg

Humidity: 37%

Dew Point: 36 °F

Location of FørdeLocation

Past Weather in Førde — Graph

°F

Førde Temperature Yesterday

Maximum temperature yesterday: 63 °F (at 2:50 PM)
Minimum temperature yesterday: 45 °F (at 5:50 AM)
Average temperature yesterday: 57 °F

High & Low Weather Summary for the Past Weeks

 TemperatureHumidityPressure
High68 °F (May 11, 3:20 PM)100% (May 20, 5:20 PM)30.21 "Hg (May 20, 5:20 PM)
Low36 °F (May 13, 5:50 AM)24% (May 25, 3:50 PM)29.59 "Hg (May 20, 10:50 AM)
Average48 °F65%29.88 "Hg
* Reported May 11 1:20 PM — May 26 1:20 PM, Førde, Weather by CustomWeather, © 2016

Note: Actual official high and low records may vary slightly from our data, if they occured in-between our weather recording intervals... More about our weather records

Advertising

Førde Weather History for the Previous 24 Hours

Scroll right to see more
 ConditionsComfort  
Time TempWeatherWind HumidityBarometerVisibility
1:20 PM
Thu, May 26
63 °FPassing clouds.8 mph37%30.09 "HgN/A
12:50 PM63 °FSunny.5 mph34%30.09 "Hg10 mi
12:20 PM64 °FPassing clouds.6 mph32%30.09 "HgN/A
11:50 AM63 °FPassing clouds.7 mph32%30.09 "HgN/A
11:20 AM61 °FPassing clouds.6 mph34%30.09 "HgN/A
10:50 AM61 °FPassing clouds.6 mph36%30.09 "HgN/A
10:20 AM61 °FPassing clouds.5 mph36%30.09 "HgN/A
9:20 AM57 °FSunny.3 mph39%30.09 "Hg10 mi
8:50 AM55 °FSunny.3 mph47%30.09 "Hg10 mi
7:50 AM54 °FSunny.6 mph44%30.09 "Hg10 mi
7:20 AM52 °FPassing clouds.5 mph47%30.09 "HgN/A
6:50 AM50 °FPassing clouds.5 mph54%30.09 "HgN/A
6:20 AM50 °FSunny.5 mph54%30.09 "Hg10 mi
5:50 AM52 °FSunny.6 mphN/AN/A10 mi
10:50 PM
Wed, May 25
52 °FSunny.6 mph47%30.12 "Hg10 mi
10:20 PM54 °FSunny.6 mph44%30.12 "Hg10 mi
9:50 PM57 °FSunny.5 mph39%30.12 "Hg10 mi
8:20 PM61 °FSunny.8 mph27%30.12 "Hg10 mi
7:50 PM63 °FSunny.8 mph24%30.12 "Hg10 mi
7:20 PM63 °FSunny.9 mph27%30.12 "Hg10 mi
6:50 PM63 °FSunny.9 mph27%30.12 "Hg10 mi
6:20 PM63 °FSunny.10 mph27%30.15 "Hg10 mi
5:20 PM63 °FSunny.6 mph27%30.15 "Hg10 mi
4:50 PM63 °FSunny.12 mph25%30.15 "Hg10 mi
4:20 PM63 °FSunny.12 mph25%30.15 "Hg10 mi
3:50 PM63 °FSunny.12 mph24%30.18 "Hg10 mi
3:20 PM63 °FSunny.9 mph25%30.18 "Hg10 mi
2:50 PM63 °FSunny.9 mph25%30.18 "Hg10 mi
Weather by CustomWeather, © 2016

See weather overviewHow to use our weather pages